TimeEDT,TemperatureF,Dew PointF,Humidity,Sea Level PressureIn,VisibilityMPH,Wind Direction,Wind SpeedMPH,Gust SpeedMPH,PrecipitationIn,Events,Conditions,WindDirDegrees,DateUTC
12:53 AM,54.0,48.9,83,30.23,10.0,Calm,Calm,-,N/A,,Clear,0,2012-10-12 04:53:00
1:53 AM,54.0,48.9,83,30.23,10.0,Calm,Calm,-,N/A,,Clear,0,2012-10-12 05:53:00
2:53 AM,54.0,48.0,80,30.20,10.0,Calm,Calm,-,N/A,,Partly Cloudy,0,2012-10-12 06:53:00
3:53 AM,54.0,48.9,83,30.19,10.0,Calm,Calm,-,N/A,,Mostly Cloudy,0,2012-10-12 07:53:00
4:53 AM,55.0,50.0,83,30.18,10.0,NE,3.5,-,N/A,,Scattered Clouds,40,2012-10-12 08:53:00
5:53 AM,53.1,48.0,83,30.19,10.0,Calm,Calm,-,N/A,,Clear,0,2012-10-12 09:53:00
6:53 AM,55.0,48.0,77,30.20,10.0,North,5.8,-,N/A,,Clear,360,2012-10-12 10:53:00
7:53 AM,52.0,48.0,86,30.22,10.0,Calm,Calm,-,N/A,,Clear,0,2012-10-12 11:53:00
8:53 AM,57.0,50.0,77,30.24,10.0,Calm,Calm,-,N/A,,Clear,0,2012-10-12 12:53:00
9:53 AM,66.9,50.0,54,30.23,10.0,NNE,12.7,19.6,N/A,,Clear,20,2012-10-12 13:53:00
10:53 AM,69.1,52.0,54,30.23,10.0,NNE,8.1,-,N/A,,Clear,30,2012-10-12 14:53:00
11:53 AM,69.1,53.1,57,30.23,10.0,NNE,6.9,-,N/A,,Clear,20,2012-10-12 15:53:00
1:53 PM,72.0,55.0,55,30.21,10.0,Calm,Calm,-,N/A,,Clear,0,2012-10-12 17:53:00
2:53 PM,73.9,55.0,52,30.19,10.0,SE,5.8,-,N/A,,Clear,140,2012-10-12 18:53:00
3:53 PM,73.9,55.0,52,30.19,10.0,SW,6.9,-,N/A,,Clear,220,2012-10-12 19:53:00
4:53 PM,73.9,55.0,52,30.20,10.0,Calm,Calm,-,N/A,,Partly Cloudy,0,2012-10-12 20:53:00
6:53 PM,72.0,55.0,55,30.22,10.0,Calm,Calm,-,N/A,,Mostly Cloudy,0,2012-10-12 22:53:00
7:53 PM,69.1,57.9,68,30.25,10.0,North,4.6,-,N/A,,Overcast,350,2012-10-12 23:53:00
8:53 PM,66.0,57.0,73,30.25,10.0,North,4.6,-,N/A,,Partly Cloudy,10,2012-10-13 00:53:00
10:53 PM,66.0,55.0,68,30.29,10.0,ENE,6.9,-,N/A,,Overcast,60,2012-10-13 02:53:00
11:53 PM,64.0,54.0,70,30.29,10.0,NE,12.7,-,N/A,,Overcast,40,2012-10-13 03:53:00